• în Republica Moldova
  • Lista ţărilor
  • Pe 7 zile
  • Temperatura apei
  • Hartă satelitară
  • Meteo pe hartă
  • Widget-uri
  • user-avatar
    Intrare

    Meteo pe oră la Townsville

    Astăzi, 26 Martie, Duminică

    Timp Temperatura Precipitaţii Vânt Presiune Umiditate
    00:00 +26°C° 0 mm 3 m/s 750 mmHg 83%
    01:00 +26°C° 0 mm 4 m/s 750 mmHg 83%
    02:00 +25°C° 0 mm 4 m/s 750 mmHg 83%
    03:00 +25°C° 0 mm 5 m/s 750 mmHg 82%
    04:00 +23°C° 0 mm 4 m/s 749 mmHg 86%
    05:00 +23°C° 0 mm 4 m/s 750 mmHg 87%
    06:00 +23°C° 0 mm 5 m/s 750 mmHg 87%
    07:00 +23°C° 0 mm 5 m/s 750 mmHg 88%
    08:00 +24°C° 0 mm 6 m/s 750 mmHg 82%
    09:00 +27°C° 0 mm 6 m/s 750 mmHg 76%
    10:00 +30°C° 0 mm 5 m/s 750 mmHg 72%
    11:00 +32°C° 0 mm 5 m/s 750 mmHg 67%
    12:00 +33°C° 0 mm 5 m/s 749 mmHg 63%
    13:00 +34°C° 0 mm 5 m/s 749 mmHg 59%
    14:00 +33°C° 0 mm 5 m/s 748 mmHg 61%
    15:00 +33°C° 0 mm 5 m/s 748 mmHg 62%
    16:00 +30°C° 0 mm 6 m/s 748 mmHg 68%
    17:00 +30°C° 0 mm 6 m/s 748 mmHg 70%
    18:00 +29°C° 0 mm 6 m/s 748 mmHg 72%
    19:00 +28°C° 0 mm 6 m/s 749 mmHg 75%
    20:00 +28°C° 0 mm 6 m/s 749 mmHg 75%
    21:00 +28°C° 0 mm 6 m/s 749 mmHg 76%
    22:00 +28°C° 0 mm 7 m/s 749 mmHg 76%
    23:00 +28°C° 0 mm 7 m/s 749 mmHg 77%

    Mâine, 27 Martie, Luni

    Timp Temperatura Precipitaţii Vânt Presiune Umiditate
    00:00 +27°C° 0 mm 7 m/s 749 mmHg 78%
    01:00 +27°C° 0 mm 7 m/s 749 mmHg 79%
    02:00 +27°C° 0 mm 7 m/s 748 mmHg 79%
    03:00 +27°C° 0 mm 7 m/s 748 mmHg 80%
    04:00 +27°C° 0 mm 8 m/s 747 mmHg 80%
    05:00 +27°C° 0 mm 8 m/s 748 mmHg 81%
    06:00 +27°C° 0 mm 8 m/s 748 mmHg 81%
    07:00 +26°C° 0 mm 8 m/s 748 mmHg 82%
    08:00 +28°C° 0 mm 8 m/s 748 mmHg 77%
    09:00 +29°C° 0 mm 8 m/s 748 mmHg 73%
    10:00 +32°C° 0 mm 8 m/s 747 mmHg 68%
    11:00 +32°C° 0 mm 8 m/s 747 mmHg 67%
    12:00 +32°C° 0 mm 7 m/s 746 mmHg 66%
    13:00 +33°C° 0 mm 7 m/s 746 mmHg 65%
    14:00 +32°C° 0 mm 7 m/s 745 mmHg 67%
    15:00 +31°C° 0 mm 8 m/s 744 mmHg 70%
    16:00 +29°C° 0 mm 8 m/s 744 mmHg 72%
    17:00 +29°C° 0 mm 8 m/s 744 mmHg 71%
    18:00 +29°C° 0 mm 8 m/s 744 mmHg 70%
    19:00 +29°C° 0 mm 8 m/s 744 mmHg 70%
    20:00 +29°C° 0,4 mm 8 m/s 744 mmHg 72%
    21:00 +29°C° 0,4 mm 8 m/s 744 mmHg 75%
    22:00 +28°C° 0,4 mm 9 m/s 743 mmHg 78%
    23:00 +28°C° 0,4 mm 9 m/s 743 mmHg 79%

    Poimâine, 28 Martie, Marţi

    Timp Temperatura Precipitaţii Vânt Presiune Umiditate
    00:00 +28°C° 0,4 mm 10 m/s 742 mmHg 79%
    01:00 +28°C° 0,4 mm 10 m/s 741 mmHg 79%
    02:00 +27°C° 1,1 mm 11 m/s 741 mmHg 81%
    03:00 +27°C° 1,1 mm 12 m/s 740 mmHg 82%
    04:00 +27°C° 1,1 mm 13 m/s 739 mmHg 83%
    05:00 +27°C° 1,7 mm 13 m/s 739 mmHg 83%
    06:00 +27°C° 1,7 mm 13 m/s 739 mmHg 82%
    07:00 +27°C° 1,7 mm 13 m/s 740 mmHg 82%
    08:00 +27°C° 3,3 mm 13 m/s 740 mmHg 84%
    09:00 +27°C° 3,3 mm 13 m/s 740 mmHg 87%
    10:00 +26°C° 3,3 mm 12 m/s 740 mmHg 89%
    11:00 +26°C° 4,4 mm 12 m/s 740 mmHg 90%
    12:00 +26°C° 4,4 mm 12 m/s 740 mmHg 90%
    13:00 +26°C° 4,4 mm 12 m/s 740 mmHg 91%
    14:00 +26°C° 3,9 mm 11 m/s 739 mmHg 92%
    15:00 +26°C° 3,9 mm 11 m/s 739 mmHg 92%
    16:00 +26°C° 3,9 mm 11 m/s 739 mmHg 92%
    17:00 +26°C° 3,8 mm 11 m/s 740 mmHg 92%
    18:00 +26°C° 3,8 mm 10 m/s 740 mmHg 92%
    19:00 +27°C° 3,8 mm 10 m/s 741 mmHg 92%
    20:00 +27°C° 2,5 mm 10 m/s 742 mmHg 92%
    21:00 +27°C° 2,5 mm 9 m/s 742 mmHg 92%
    22:00 +27°C° 2,5 mm 9 m/s 743 mmHg 93%
    23:00 +27°C° 1,8 mm 8 m/s 743 mmHg 93%

    29 Martie, Miercuri

    Timp Temperatura Precipitaţii Vânt Presiune Umiditate
    00:00 +27°C° 1,8 mm 8 m/s 743 mmHg 93%
    01:00 +27°C° 1,8 mm 8 m/s 743 mmHg 93%
    02:00 +27°C° 1,6 mm 8 m/s 743 mmHg 93%
    03:00 +27°C° 1,6 mm 8 m/s 743 mmHg 93%
    04:00 +27°C° 1,6 mm 7 m/s 743 mmHg 92%
    05:00 +27°C° 1,7 mm 7 m/s 744 mmHg 92%
    06:00 +27°C° 1,7 mm 7 m/s 745 mmHg 92%
    07:00 +27°C° 1,7 mm 7 m/s 746 mmHg 92%
    08:00 +28°C° 1,6 mm 7 m/s 746 mmHg 90%
    09:00 +28°C° 1,6 mm 7 m/s 747 mmHg 89%
    10:00 +29°C° 1,6 mm 7 m/s 747 mmHg 87%
    11:00 +29°C° 1,4 mm 7 m/s 747 mmHg 86%
    12:00 +30°C° 1,4 mm 7 m/s 747 mmHg 84%
    13:00 +30°C° 1,4 mm 6 m/s 747 mmHg 83%
    14:00 +30°C° 0,9 mm 6 m/s 746 mmHg 83%
    15:00 +30°C° 0,9 mm 6 m/s 746 mmHg 82%
    16:00 +30°C° 0,9 mm 6 m/s 746 mmHg 82%
    17:00 +29°C° 1,2 mm 6 m/s 746 mmHg 85%
    18:00 +29°C° 1,2 mm 6 m/s 747 mmHg 89%
    19:00 +28°C° 1,2 mm 6 m/s 747 mmHg 92%
    20:00 +28°C° 1,1 mm 6 m/s 748 mmHg 93%
    21:00 +28°C° 1,1 mm 6 m/s 749 mmHg 94%
    22:00 +28°C° 1,1 mm 6 m/s 749 mmHg 94%
    23:00 +28°C° 1 mm 6 m/s 749 mmHg 94%

    30 Martie, Joi

    Timp Temperatura Precipitaţii Vânt Presiune Umiditate
    00:00 +28°C° 1 mm 6 m/s 748 mmHg 93%
    01:00 +28°C° 1 mm 6 m/s 748 mmHg 92%
    02:00 +28°C° 1 mm 6 m/s 748 mmHg 92%
    03:00 +27°C° 1 mm 6 m/s 748 mmHg 92%
    04:00 +27°C° 1 mm 6 m/s 747 mmHg 92%
    05:00 +27°C° 0,8 mm 6 m/s 748 mmHg 92%
    06:00 +27°C° 0,8 mm 6 m/s 748 mmHg 92%
    07:00 +27°C° 0,8 mm 5 m/s 749 mmHg 92%
    08:00 +29°C° 0,4 mm 5 m/s 749 mmHg 84%
    09:00 +32°C° 0,4 mm 6 m/s 749 mmHg 77%
    10:00 +34°C° 0,4 mm 6 m/s 750 mmHg 69%
    11:00 +34°C° 0,4 mm 6 m/s 749 mmHg 67%
    12:00 +35°C° 0,4 mm 6 m/s 748 mmHg 66%
    13:00 +35°C° 0,4 mm 6 m/s 748 mmHg 64%
    14:00 +35°C° 1 mm 5 m/s 748 mmHg 68%
    15:00 +34°C° 1 mm 5 m/s 747 mmHg 72%
    16:00 +33°C° 1 mm 5 m/s 747 mmHg 76%
    17:00 +32°C° 0,7 mm 5 m/s 748 mmHg 81%
    18:00 +30°C° 0,7 mm 5 m/s 748 mmHg 86%
    19:00 +28°C° 0,7 mm 5 m/s 749 mmHg 91%
    20:00 +28°C° 0,5 mm 4 m/s 749 mmHg 91%
    21:00 +28°C° 0,5 mm 4 m/s 749 mmHg 92%
    22:00 +28°C° 0,5 mm 4 m/s 750 mmHg 92%
    23:00 +28°C° 0,4 mm 4 m/s 749 mmHg 91%

    31 Martie, Vineri

    Timp Temperatura Precipitaţii Vânt Presiune Umiditate
    00:00 +28°C° 0,4 mm 4 m/s 749 mmHg 90%
    01:00 +28°C° 0,4 mm 4 m/s 749 mmHg 90%
    02:00 +27°C° 0,1 mm 4 m/s 748 mmHg 89%
    03:00 +27°C° 0,1 mm 4 m/s 748 mmHg 88%
    04:00 +27°C° 0,1 mm 3 m/s 748 mmHg 87%
    05:00 +27°C° 0,1 mm 3 m/s 749 mmHg 87%
    06:00 +26°C° 0,1 mm 4 m/s 749 mmHg 88%
    07:00 +26°C° 0,1 mm 4 m/s 750 mmHg 88%
    08:00 +28°C° 0 mm 4 m/s 750 mmHg 82%
    09:00 +29°C° 0 mm 4 m/s 750 mmHg 76%
    10:00 +32°C° 0 mm 4 m/s 750 mmHg 71%
    11:00 +33°C° 0 mm 3 m/s 749 mmHg 66%
    12:00 +34°C° 0 mm 2 m/s 749 mmHg 61%
    13:00 +36°C° 0 mm 2 m/s 748 mmHg 56%
    14:00 +36°C° 0 mm 2 m/s 748 mmHg 55%
    15:00 +36°C° 0 mm 3 m/s 748 mmHg 55%
    16:00 +36°C° 0 mm 3 m/s 748 mmHg 55%
    17:00 +34°C° 0 mm 3 m/s 748 mmHg 64%
    18:00 +31°C° 0 mm 3 m/s 749 mmHg 72%
    19:00 +28°C° 0 mm 2 m/s 749 mmHg 81%
    20:00 +28°C° 0 mm 2 m/s 749 mmHg 82%
    21:00 +28°C° 0 mm 2 m/s 750 mmHg 84%
    22:00 +27°C° 0 mm 2 m/s 750 mmHg 85%
    23:00 +27°C° 0,2 mm 2 m/s 750 mmHg 86%
    Arată mai mult